Location: Lecco
(45.8566°N, 9.3977°E)
Time: 12:44:43
(UTC+02:00)

Explorer 11/Cluster Stage 4 - Pass Details

Date: 14 August 2020
Orbit: 467 x 1258 km, 28.8° (Epoch: 24 September)

Event Time Altitude Azimuth Distance (km) Brightness Sun altitude
Rises 01:50:34 0° 251° (WSW) 4,194 - -29.6°
Reaches altitude 10° 01:54:35 10° 234° (SW) 3,225 - -29.5°
Maximum altitude 01:59:42 18° 196° (SSW) 2,597 - -29.4°
Drops below altitude 10° 02:04:36 10° 156° (SSE) 3,059 - -29.3°
Sets 02:08:17 0° 139° (SE) 3,902 - -29.2°
